Location: Newark
(7.1028°S, 35.3258°W)
Time: 21:16:16
(UTC+00:00)

Hubble Space Telescope - Pass Details

Date: 25 January 2020
Orbit: 536 x 540 km, 28.5° (Epoch: 19 February)

Event Time Altitude Azimuth Distance (km) Brightness Sun altitude
Rises 21:30:39 0° 259° (W) 2,679 6.3 -11.0°
Reaches altitude 10° 21:33:57 10° 232° (SW) 1,790 4.8 -11.8°
Maximum altitude 21:36:02 13° 202° (SSW) 1,581 3.8 -12.3°
Drops below altitude 10° 21:38:06 10° 172° (S) 1,791 3.6 -12.7°
Sets 21:41:25 0° 144° (SE) 2,683 4.2 -13.5°
